DMSP 5D-2 F11 DEB, 28325

Orbit data source: Space-Track

DMSP 5D-2 F11 DEB, 28325 is space debris in SSO originally from a launch on Thu, 28 Nov 1991 UTC launched from the Air Force Western Test Range (AFWTR). Debris objects in space refer to the collection of defunct objects orbiting the Earth. Examples of debris include non-operational satellites, rocket bodies, and fragments generated from explosions, collisions, or faulty payload assembly.

Loading next visibility...
Identifier
28325, 1991-082AN
Orbit
SSO
Country
Flag of USUS
Related business
Manufacturer
Unknown
Mission
Spacecraft
Bus & Motor
Unknown
Mass
Unknown
Launch date (UTC)
1991-11-28 (35 years ago)
Launch vehicle
Unknown
Launch site
Air Force Western Test Range (AFWTR)
Object type
Payload
Rocket body
Debris
Shape & HBR
Unknown shape, 0.1 m
Radar Cross Section
Medium (>0.1 m² and <1 m²)

Expand to show TLE details & history
Last TLE update: 13 hours ago

TLE from 13 hours ago
0 DMSP 5D-2 F11 DEB
1 28325U 91082AN  26255.66367557  .00029844  00000-0  30632-2 0  9998
2 28325  98.5592 152.9074 0019399 195.9805 195.2562 14.90203318155862
Epoch: 2026-09-12T15:55Z
TLE epoch observation values (Epoch: 2026-09-12T15:55:41.569Z)
Latitude
30.8499°
Longitude
-82.81491°
Altitude
614.326 km
Speed
7.548 km/s
True Right ascension
09h 51m 06s
True Declination
30° 41' 44"
Sunlit
Object was in daylight at epoch
Visualization orbit readout
Latitude
Unknown
Longitude
Unknown
Altitude
Unknown
Speed
Unknown
Apparent Right ascension
Unknown
Apparent Declination
Unknown
Sunlit
N/A
Visualization observer readout
Local Sidereal Time
21:43:11
Azimuth
Unknown
Elevation
Unknown
Doppler factor
Unknown
Orbital elements
Apogee altitude
607.885 km
Perigee altitude
580.833 km
Semi-major axis
6,972.496 km
Eccentricity
0.00194
Inclination
98.5592°
RAAN
152.9074°
Arg. of periapsis
195.9805°
True anomaly
195.19784°
Mean anomaly
195.2562°
Eccentric anomaly
195.22701°
Mean motion
3.72787 °/min
Orbital period
96.57 mins
BSTAR
0.0030632
Loading maneuver chart data...
Computing Atmospheric mass density...

Documentation

Showing up to 5 results
|